Starlink 11253

operational
NORAD ID: 60935 Int'l Des: 2024-155 Owner: SPXS Country: US Constellation: starlink
LEOCIRCULAR

Über Starlink 11253

Beschreibung wird geladen...

Live-Position

3D-Globus wird geladen...

Nächste Überflüge

Höhenverlauf

Altitude vs Time

uPlot chart will show altitude changes over time

Zweizeiliger Elementsatz

1 60935U 24155M 25353.24592892 -.00002433 00000-0 -15241-4 0 9990
2 60935 53.1593 18.1122 0001297 120.4226 239.6920 15.69690983 75764
Epoch: 19. Dez. 2025 • Age: 33 hours

Aktueller Status

Höhe 366.8 km
Geschwindigkeit 7.69 km/s
Subsatellitenpunkt -22.05°S, 33.17°E
Startdatum 31. Aug. 2024
Alter 1.3 years
Typ internet

Technische Details

Klassifizierung Payload
Masse 960.00 kg
Trockenmasse 910.00 kg
Gesamtmasse 960.00 kg
Länge 0.30 m
Durchmesser 4.10 m
Spannweite 29.00 m
Form Box + pan
Hersteller SPXS
Bus-Typ Starlink V2MD
Phasenstatus In Orbit
Besitzer/Staat SPXS/US

Große Konstellationen

Loading constellations...